Location: Friedrichshafen
(47.6598°N, 9.4819°E)
Time: 06:57:38
(UTC+01:00)

Tiangong 1 - Visible Passes

Search period start: 18 January 2018 00:00
Search period end: 28 January 2018 00:00
Orbit: 264 x 288 km, 42.8° (Epoch: 17 January)

Date Brightness Start Highest point End Pass type
(mag) Time Alt. Az. Time Alt. Az. Time Alt. Az.
18 Jan 2.4 17:58:14 10° SW 18:00:18 23° S 18:02:19 10° ESE visible
18 Jan 4.2 19:32:14 10° WSW 19:32:19 11° WSW 19:32:19 11° WSW visible
19 Jan 2.3 17:57:49 10° WSW 17:59:57 25° S 18:02:05 10° ESE visible
19 Jan 4.1 19:32:04 10° WSW 19:32:10 11° WSW 19:32:10 11° WSW visible
20 Jan 2.3 17:57:21 10° WSW 17:59:29 25° S 18:01:36 10° ESE visible
20 Jan 4.1 19:31:56 10° SW 19:31:56 10° SW 19:31:56 10° SW visible
21 Jan 2.6 17:56:47 10° WSW 17:58:51 23° S 18:00:55 10° SE visible
22 Jan 2.9 17:56:10 10° WSW 17:58:04 19° SSW 17:59:58 10° SE visible
23 Jan 3.4 17:55:32 10° WSW 17:57:07 15° SSW 17:58:42 10° SSE visible
24 Jan 3.7 17:55:06 10° SW 17:56:01 11° SSW 17:56:55 10° S visible
